Location: Newark
(34.6283°N, 36.0776°E)
Time: 15:49:01
(UTC+00:00)

Tiros 1 despin weight - Pass Details

Date: 23 September 2019
Orbit: 593 x 643 km, 48.2° (Epoch: 21 October)

Event Time Altitude Azimuth Distance (km) Brightness Sun altitude
Rises 14:56:28 0° 307° (NW) 2,842 ? 6.4°
Reaches altitude 10° 14:58:46 10° 307° (NW) 1,932 ? 6.0°
Maximum altitude 15:03:12 90° 37° (NE) 597 ? 5.1°
Drops below altitude 10° 15:07:35 10° 128° (SE) 1,914 ? 4.2°
Sets 15:09:52 0° 129° (SE) 2,813 ? 3.7°
